Location: Clermont
(50.2608°N, 4.3172°E)
Time: 03:43:58
(UTC+00:00)

Cosmos 1378 Rocket - Pass Details

Date: 13 August 2020
Orbit: 601 x 628 km, 82.5° (Epoch: 19 September)

Event Time Altitude Azimuth Distance (km) Brightness Sun altitude
Rises 23:03:53 0° 344° (NNW) 2,928 8.4 -24.7°
Reaches altitude 10° 23:06:13 10° 337° (NNW) 2,014 7.2 -24.8°
Maximum altitude 23:10:24 41° 268° (W) 909 4.4 -24.9°
Enters shadow 23:10:25 41° 267° (W) 909 4.4 -24.9°
